Gustaf III Airport


Codes: TFFJ/SBH
Name: Gustaf III Airport
City: Gustavia
Country: Saint Barthelemy
Elevation: 49 ft.
Wikipedia:

Photos at Gustaf III Airport


   Photos courtesy of SpottingLog. You can add your own sightings and photos by signing up for a free trial today.



No photos found.

Weather at Gustaf III Airport


Time (UTC)DescriptionTempratureWindCloud coverageVisibilityPressureHumidity
16-Jun-2024 03:00Light Rain29°C11 mph, E57%10000m1019hPa75%
16-Jun-2024 06:00Broken Clouds28°C11 mph, SE76%10000m1017hPa76%
16-Jun-2024 09:00Light Rain28°C11 mph, SE90%10000m1015hPa75%
16-Jun-2024 12:00Light Rain28°C11 mph, SE65%10000m1016hPa76%
16-Jun-2024 15:00Light Rain28°C13 mph, SE11%10000m1016hPa74%
16-Jun-2024 18:00Few Clouds28°C9 mph, SE11%10000m1015hPa73%
16-Jun-2024 21:00Light Rain29°C9 mph, SE97%10000m1014hPa68%
17-Jun-2024 00:00Overcast Clouds29°C9 mph, SE100%10000m1015hPa75%
17-Jun-2024 03:00Light Rain28°C11 mph, E100%10000m1015hPa75%
17-Jun-2024 06:00Light Rain28°C11 mph, E99%10000m1013hPa77%
17-Jun-2024 09:00Overcast Clouds28°C11 mph, SE100%10000m1013hPa72%
17-Jun-2024 12:00Overcast Clouds28°C11 mph, SE97%10000m1014hPa76%
17-Jun-2024 15:00Overcast Clouds29°C11 mph, SE91%10000m1014hPa74%
17-Jun-2024 18:00Broken Clouds29°C9 mph, SE71%10000m1013hPa75%
17-Jun-2024 21:00Light Rain29°C9 mph, E58%10000m1012hPa74%
18-Jun-2024 00:00Broken Clouds29°C11 mph, E53%10000m1013hPa74%
18-Jun-2024 03:00Broken Clouds29°C9 mph, E57%10000m1014hPa76%
18-Jun-2024 06:00Light Rain28°C13 mph, E60%10000m1012hPa78%
18-Jun-2024 09:00Overcast Clouds28°C13 mph, E91%10000m1012hPa77%
18-Jun-2024 12:00Broken Clouds28°C13 mph, SE82%10000m1013hPa76%
18-Jun-2024 15:00Broken Clouds29°C13 mph, SE75%10000m1014hPa76%
18-Jun-2024 18:00Light Rain29°C13 mph, E63%10000m1012hPa76%
18-Jun-2024 21:00Light Rain28°C11 mph, E76%10000m1012hPa77%
19-Jun-2024 00:00Light Rain29°C13 mph, E88%10000m1013hPa75%
19-Jun-2024 03:00Light Rain29°C16 mph, E99%10000m1014hPa77%
19-Jun-2024 06:00Light Rain28°C16 mph, E89%10000m1012hPa78%
19-Jun-2024 09:00Scattered Clouds28°C18 mph, SE41%10000m1012hPa77%
19-Jun-2024 12:00Scattered Clouds29°C16 mph, E30%10000m1014hPa75%
19-Jun-2024 15:00Scattered Clouds29°C18 mph, E40%10000m1015hPa76%
19-Jun-2024 18:00Light Rain29°C18 mph, E60%10000m1014hPa76%
19-Jun-2024 21:00Light Rain29°C18 mph, E98%10000m1013hPa77%
20-Jun-2024 00:00Broken Clouds29°C20 mph, E79%10000m1014hPa75%
20-Jun-2024 03:00Light Rain28°C20 mph, E100%10000m1014hPa76%
20-Jun-2024 06:00Overcast Clouds28°C20 mph, E100%10000m1013hPa77%
20-Jun-2024 09:00Overcast Clouds28°C18 mph, E100%10000m1013hPa77%
20-Jun-2024 12:00Light Rain28°C18 mph, E97%10000m1015hPa77%
20-Jun-2024 15:00Light Rain29°C18 mph, E100%10000m1015hPa75%
20-Jun-2024 18:00Light Rain29°C16 mph, E100%10000m1014hPa77%
20-Jun-2024 21:00Light Rain28°C18 mph, E97%10000m1014hPa78%
21-Jun-2024 00:00Light Rain28°C18 mph, E96%10000m1015hPa79%